www.pogodaiklimat.ru

Погода и климат >> Архив погоды >> Россия >> Ивановская область >> Иваново


АРХИВ ПОГОДЫ в Иванове

Время (UTC), дата Ветер
(напр.,м/с)
 
Видим.   Явления Облачность Т
(С)
Тd
(С)
f
(%)
Тe
(С)
Тes
(С)
Комфортность P
(гПа)
Po
(гПа)
Тmin
(С)
Tmax
(С)
R
(мм)
R24
(мм)
S
(см)
18 17.09 ЮЗ 2 10 км 4/0
[Ci fib]
+8.7 +4.7 76 +7 +7 по сезону 1016.4 1001.1
21 17.09 Ю 1 10 км 10/0
[Ac trans Ci fib]
+8.2 +5.0 80 +8 +8 по сезону 1015.2 999.9
00 18.09 Ю 2 10 км 10/0
[Ac trans]
+8.9 +5.0 77 +7 +7 по сезону 1013.2 997.9
03 18.09 Ю 3 10 км слабый ливневой дождь 10/5 400 м
[Cb calv Ac As]
+8.9 +6.7 86 +6 +6 по сезону 1010.8 995.6 +7.5 0.3
06 18.09 ЮЗ 2 4000 м слабый ливневой дождь 10/8 300 м
[Cb cap Ac und]
+10.2 +9.1 93 +9 +9 по сезону 1009.7 994.6
09 18.09 З 4 10 км {ливн. осадки} 9/9 480 м
[Cb calv]
+14.9 +11.4 80 +14 +14 тепло 1008.8 994.0
12 18.09 З 6-10
{12}
10 км {ливн. осадки} 9/9 480 м
[Cb calv]
+15.5 +9.7 68 +14 +14 тепло 1008.6 993.8
15 18.09 СЗ 4
{14}
10 км 8/4 1000 м
[Sc Ac trans Ci fib]
+13.1 +5.5 60 +12 +12 тепло 1010.3 995.3 +15.9 1
18 18.09 З 5 10 км 10/3 1000 м
[Sc Ac trans]
+10.9 +5.3 68 +8 +8 по сезону 1012.3 997.2
21 18.09 СЗ 3 10 км 10/0
[Ac trans Ci fib]
+8.5 +5.0 79 +6 +6 по сезону 1013.0 997.8
00 19.09 СЗ 3 10 км 6/0
[Ci fib]
+7.5 +4.9 84 +5 +5 по сезону 1013.6 998.2
03 19.09 ЮЗ 2 10 км 8/0
[Ac trans]
+6.0 +4.7 91 +3 +3 прохладно 1014.5 999.1 +5.8
06 19.09 З 2 10 км 10/1 1000 м
[Sc Ac und]
+10.8 +7.0 77 +10 +10 тепло 1014.4 999.2
09 19.09 ЮЗ 1 4000 м слабый дождь 10/4 960 м
[Sc As op]
+10.5 +8.5 87 +10 +11 по сезону 1014.0 998.8
12 19.09 ЮЗ 2 4000 м дымка {дождь} 10/10 150 м
[Frnb]
+11.2 +9.9 92 +10 +10 по сезону 1012.9 997.8
15 19.09 З 1 4000 м дымка {дождь, морось} 10/8 180 м
[St Ac und]
+11.9 +10.7 92 +12 +12 тепло 1012.7 997.7 +12.1 2
18 19.09 Ю 1 300 м туман {дождь, морось} ?/? +10.1 +9.3 95 +10 +10 тепло 1012.6 997.5
21 19.09 ЮВ 1 300 м туман ?/? +8.5 +7.8 95 +8 +8 по сезону 1012.2 997.0
00 20.09 ЮВ 1 300 м туман ?/? +7.7 +7.0 95 +7 +7 по сезону 1011.6 996.3
03 20.09 Ю 1 2000 м в посл. час туман 8/4 200 м
[St Ac trans]
+7.8 +7.1 95 +7 +7 по сезону 1010.5 995.2 +7.1
06 20.09 З 2 10 км {туман} 4/0
[Ac As]
+13.0 +12.3 96 +12 +14 тепло 1010.2 995.3
09 20.09 СЗ 4 10 км {дождь} 9/6 450 м
[Sc Ac As]
+18.0 +13.3 74 +18 +19 тепло 1010.4 995.7
12 20.09 СЗ 6-11
{11}
10 км {дождь} 9/6 450 м
[Sc Ac As]
+18.0 +13.3 74 +17 +18 тепло 1010.4 997.4
15 20.09 З 3
{11}
10 км 8/6 450 м
[Sc Ac As]
+15.4 +11.7 79 +15 +15 тепло 1013.8 998.9 +18.9 0.3
18 20.09 З 1 10 км 8/6 600 м
[Sc Ac As]
+12.4 +11.1 92 +12 +12 тепло 1014.9 999.8
21 20.09 штиль 0 2000 м дымка 8/6 600 м
[Sc Ac As]
+9.5 +8.6 94 +9 +9 тепло 1015.4 1000.1
00 21.09 ЮЗ 1 2000 м дымка 8/6 600 м
[Sc Ac As]
+9.3 +8.6 95 +9 +9 тепло 1016.2 1001.0
03 21.09 ЮЗ 1 2000 м дымка 8/0
[Ac As]
+10.8 +10.0 95 +10 +10 тепло 1017.3 1002.1 +7.4
06 21.09 ЮЗ 1 10 км 8/4 600 м
[Sc Ac trans Ci fib]
+15.4 +12.5 83 +16 +17 тепло 1017.7 1002.8
09 21.09 ЮЗ 3 10 км 6/0
[Ci fib]
+22.1 +12.3 54 +25 +29 комфорт 1017.6 1003.0
12 21.09 З 4 10 км 8/0
[Ac trans Ci fib]
+23.6 +12.3 49 +25 +27 комфорт 1017.8 1003.3
15 21.09 ЮЗ 1 10 км 10/0
[Ac trans Ci fib]
+19.8 +12.9 64 +23 +23 комфорт 1017.9 1003.2 +24.1
18 21.09 ЮЗ 1 10 км 9/0
[Ci fib]
+16.2 +12.7 80 +17 +17 тепло 1018.4 1003.5
21 21.09 Ю 1 10 км 4/0
[Ci fib]
+15.2 +11.8 80 +16 +16 тепло 1018.8 1003.9
00 22.09 Ю 1 10 км 3/0
[Ci fib]
+14.0 +11.0 82 +14 +14 тепло 1018.6 1003.6
03 22.09 Ю 1 10 км местами туман поземный 3/0
[Ci fib]
+9.6 +8.4 92 +9 +9 тепло 1018.9 1003.6 +9.1
06 22.09 Ю 2 10 км ясно +17.5 +12.4 72 +18 +20 тепло 1017.7 1002.9
09 22.09 ЮЗ 4 10 км ясно +23.8 +12.7 50 +26 +30 жарко 1016.2 1001.7
12 22.09 Ю 2 10 км 5/5 600 м
[Cu med, cong]
+24.3 +13.6 51 +27 +28 жарко 1014.9 1000.5
15 22.09 Ю 2 10 км ясно +21.2 +11.3 53 +23 +23 комфорт 1013.5 998.9 +25.0
18 22.09 ЮВ 4 10 км ясно +17.9 +10.9 64 +18 +18 тепло 1012.3 997.6
21 22.09 Ю 4 10 км ясно +17.3 +10.7 65 +17 +17 тепло 1010.7 995.9
00 23.09 ЮВ 3 10 км 3/0
[Ac trans]
+15.9 +10.7 71 +15 +15 тепло 1009.2 994.4
03 23.09 ЮВ 3 10 км 8/3 1000 м
[Sc Ac trans]
+15.0 +10.1 72 +14 +14 тепло 1007.2 992.3 +14.9
06 23.09 Ю 5 10 км 8/3 1000 м
[Cu hum Ac trans Ci fib]
+17.9 +10.5 62 +18 +18 тепло 1004.8 990.1 +13.7
09 23.09 Ю 4
{10}
10 км 10/6 1000 м
[Sc Ac und]
+19.9 +10.2 54 +21 +22 комфорт 1004.0 989.5
12 23.09 З 5
{13}
4000 м слабый ливневой дождь 10/8 600 м
[Cb cap Ac und]
+10.9 +9.3 90 +8 +8 по сезону 1007.6 992.6
15 23.09 З 3 10 км в посл. час ливневой дождь 10/6 330 м
[Cb cap Ac und]
+9.0 +7.6 91 +6 +6 по сезону 1008.7 993.6 +20.2 3
18 23.09 Ю 1 10 км {ливн. осадки} 10/5 1000 м
[Sc Ac und]
+8.0 +7.0 93 +7 +7 по сезону 1008.9 993.7
21 23.09 Ю 2 4000 м дымка 8/0
[Ac As]
+7.7 +6.9 95 +5 +5 по сезону 1009.1 993.9
00 24.09 Ю 1 4000 м дымка 8/0
[Ac trans]
+7.2 +6.4 95 +6 +6 по сезону 1009.2 993.9
03 24.09 Ю 1 1000 м дымка 3/0
[Ac trans]
+4.6 +4.0 96 +3 +3 по сезону 1009.2 993.8 +3.8
06 24.09 ЮЗ 2 10 км 3/3 300 м
[Sc]
+8.7 +6.6 87 +7 +8 по сезону 1009.9 994.7
09 24.09 ЮЗ 3 10 км 10/3 300 м
[Sc Ac und]
+12.7 +7.2 69 +11 +12 тепло 1009.8 994.8
12 24.09 Ю 4 10 км 10/6 600 м
[Sc Ac und]
+13.1 +6.6 65 +12 +12 по сезону 1009.5 994.5
15 24.09 ЮВ 2 10 км слабый дождь 10/6 900 м
[Sc As trans]
+10.2 +8.5 89 +9 +9 по сезону 1008.3 993.2 +13.9 0.3

 

Местоположение метеостанции Иваново (Ивановская область, Россия): широта 56.95 долгота 40.97 высота над уровнем моря 126 м.

В архиве по умолчанию представлена погода в Иванове за последнюю неделю. Архивные данные за месяц целиком и за предыдущие месяцы, начиная с января 2011 года, Вы можете получить, выбрав интересующий диапазон дат из раскрывающегося списка и нажав кнопку "Ввод!".


*Определитесь, кто Вы:
робот инопланетянин человек

Внимание! Время в таблицах - всемирное. Для получения местного времени необходимо прибавить поправку, которая в Иванове равна 3 ч.

Смотрите также архив погоды в соседних городах и на ближайших метеорологических станциях:

Погода в Тейково (Ивановская область, Россия) (28 км)
Погода в Шуе (Ивановская область, Россия) (28 км)
Погода в Пешном (Атырауская область, Казахстан) (43 км)
Погода в Приволжске (Ивановская область, Россия) (51 км)
Погода в Плесе (Ивановская область, Россия) (63 км)
Погода в Вичуге (Ивановская область, Россия) (65 км)
Погода в Суздали (Владимирская область, Россия) (67 км)
Погода в Коврове (Владимирская область, Россия) (70 км)
Погода в Гаврилов-Яме (Ярославская область, Россия) (80 км)
Погода в Костроме (Костромская область, Россия) (88 км)

Пояснения к столбцам:

Ветер - указаны скорость ветра в м/с - средняя за 10 мин, порывы в срок и между сроками (в фигурных скобках) и направление, откуда дует ветер: С - северный, СВ - северо-восточный, В - восточный, ЮВ - юго-восточный, Ю - южный, ЮЗ - юго-западный, З - западный, СЗ - северо-западный.
Видимость - горизонтальная дальность видимости в метрах или километрах. При видимости от 1 до 10 км при отсутствии осадков обычно наблюдается дымка, при ухудшении видимости до 1 км и менее - туман. В сухую погоду видимость может ухудшаться дымом, пылью или мглою.
Явления - указаны атмосферные явления, наблюдавшиеся в срок или в последний час перед сроком; фигурными скобками обозначены явления, наблюдавшиеся между сроками (за 1-3 часа до срока); квадратными скобками обозначены град или гололедные отложения с указанием их диаметра в мм.
Облачность - указаны через наклонную черту общая и нижняя облачность в баллах и высота нижней границы облаков в метрах; квадратными скобками обозначены формы облаков: Ci - перистые, Cs - перисто-слоистые, Cc - перисто-кучевые, Ac - высококучевые, As - высокослоистые, Sc - слоисто-кучевые, Ns - слоисто-дождевые, Cu - кучевые, Cb - кучево-дождевые. Подробнее классификацию облаков см. в Атласе облаков (PDF).
T - Температура воздуха - температура, измеренная на высоте 2 м над землей.
Td - Температура точки росы - температура, при понижении до которой содержащийся в воздухе водяной пар достигнет насыщения.
f - Относительная влажность воздуха - влажноcть воздуха, измеренная на высоте 2 м над землей.
Te - Эффективная температура - температура, которую ощущает одетый по сезону человек в тени. Характеристика душности погоды. При расчете учитывается влияние влажности воздуха и скорости ветра на теплоощущения человека.
Tes - Эффективная температура на солнце - температура, которую ощущает человек, с поправкой на солнечный нагрев. Характеристика знойности погоды. Зависит от высоты солнца над горизонтом, облачности и скорости ветра. Ночью, в пасмурную погоду, а также при ветре 12 м/с и более поправка равна нулю.
P - Атмосферное давление - приведенное к уровню моря атмосферное давление.
Po - Атмосферное давление - измеренное на уровне метеостанции атмосферное давление.
Tmin - Минимальная температура - минимум температуры воздуха на высоте 2 м над землей.
Tmax - Максимальная температура - максимум температуры воздуха на высоте 2 м над землей.
R - Количество осадков - Количество выпавших осадков за период времени, мм. При наведении курсора мыши на число - период времени, за который выпало указанное количество осадков.
R24 - Количество осадков - Количество выпавших осадков за 24 часа, мм.
S - Снежный покров - Высота снежного покрова, см. При наведении курсора мыши на число - состояние снежного покрова и степень покрытия местности в баллах.